Total_Precipitation_Accumulation
0.55 0.43 0.63 0.66 0.62 0.73 1.08 1.07 0.99 0.49 0.28 0.23 0.25 0.31 0.29 0.26 0.23 0.24 0.26 0.27 0.28 0.30 0.32 0.30 0.29 0.28 0.25 0.26 0.30 0.34 0.40 0.45 0.48 0.54 0.59 0.63 0.63 0.64 0.66 0.67 0.72 0.74 0.77 0.79
0.62 0.37 0.48 0.58 0.53 0.55 0.62 0.66 0.65 0.47 0.40 0.29 0.27 0.28 0.27 0.24 0.22 0.22 0.23 0.25 0.26 0.24 0.27 0.27 0.29 0.30 0.30 0.28 0.28 0.31 0.35 0.39 0.43 0.47 0.51 0.58 0.62 0.63 0.64 0.67 0.73 0.77 0.83 0.88
0.80 0.44 0.56 0.67 0.56 0.56 0.55 0.53 0.55 0.58 0.48 0.36 0.34 0.31 0.29 0.26 0.23 0.22 0.19 0.18 0.20 0.20 0.23 0.24 0.24 0.27 0.28 0.28 0.27 0.30 0.33 0.35 0.40 0.45 0.49 0.53 0.61 0.66 0.72 0.76 0.84 0.90 0.94 1.02
0.94 0.66 0.81 0.58 0.43 0.44 0.49 0.50 0.52 0.50 0.41 0.35 0.33 0.31 0.30 0.26 0.21 0.19 0.17 0.15 0.13 0.15 0.15 0.16 0.18 0.21 0.25 0.26 0.28 0.29 0.32 0.39 0.42 0.46 0.55 0.62 0.64 0.71 0.81 0.87 0.94 1.01 1.00 1.02
1.09 0.81 0.53 0.34 0.31 0.39 0.47 0.53 0.49 0.38 0.29 0.27 0.27 0.29 0.30 0.25 0.19 0.16 0.16 0.17 0.15 0.14 0.15 0.15 0.16 0.20 0.25 0.30 0.31 0.30 0.32 0.39 0.45 0.48 0.60 0.69 0.69 0.73 0.81 0.87 0.94 0.97 0.96 0.91
1.15 0.95 0.51 0.33 0.20 0.21 0.36 0.59 0.42 0.33 0.30 0.30 0.32 0.38 0.33 0.24 0.20 0.19 0.17 0.17 0.19 0.18 0.17 0.20 0.22 0.24 0.30 0.35 0.42 0.44 0.43 0.48 0.55 0.62 0.72 0.77 0.75 0.75 0.75 0.76 0.78 0.76 0.73 0.69
0.96 0.90 0.45 0.29 0.18 0.20 0.53 0.64 0.32 0.29 0.29 0.31 0.34 0.33 0.28 0.21 0.18 0.20 0.21 0.20 0.21 0.21 0.23 0.26 0.28 0.29 0.33 0.38 0.50 0.57 0.58 0.60 0.63 0.70 0.73 0.73 0.72 0.69 0.65 0.61 0.61 0.59 0.58 0.57
0.71 0.92 0.63 0.30 0.24 0.42 0.54 0.33 0.28 0.29 0.31 0.31 0.31 0.25 0.21 0.22 0.20 0.18 0.18 0.20 0.23 0.25 0.27 0.30 0.35 0.40 0.41 0.45 0.51 0.56 0.59 0.60 0.61 0.62 0.63 0.66 0.65 0.63 0.59 0.57 0.56 0.55 0.55 0.57
0.61 0.67 0.52 0.38 0.39 0.39 0.31 0.29 0.26 0.27 0.28 0.27 0.28 0.27 0.22 0.19 0.18 0.18 0.19 0.21 0.25 0.29 0.32 0.36 0.38 0.41 0.44 0.43 0.43 0.46 0.50 0.52 0.51 0.49 0.50 0.51 0.53 0.54 0.54 0.53 0.53 0.55 0.56 0.58
0.51 0.51 0.41 0.36 0.30 0.26 0.23 0.24 0.22 0.21 0.22 0.25 0.27 0.26 0.23 0.20 0.19 0.16 0.17 0.19 0.22 0.25 0.27 0.29 0.31 0.32 0.34 0.32 0.32 0.35 0.37 0.41 0.43 0.42 0.41 0.42 0.43 0.46 0.48 0.49 0.49 0.50 0.52 0.56
0.46 0.41 0.32 0.30 0.27 0.23 0.20 0.18 0.17 0.16 0.16 0.19 0.21 0.21 0.21 0.21 0.19 0.18 0.17 0.18 0.19 0.21 0.23 0.25 0.25 0.25 0.26 0.26 0.26 0.29 0.31 0.33 0.34 0.38 0.39 0.41 0.42 0.45 0.49 0.49 0.55 0.55 0.51 0.50
0.51 0.39 0.38 0.37 0.28 0.22 0.19 0.18 0.17 0.16 0.16 0.15 0.16 0.18 0.16 0.17 0.17 0.18 0.19 0.19 0.19 0.19 0.22 0.26 0.26 0.22 0.22 0.22 0.23 0.28 0.31 0.32 0.33 0.36 0.38 0.39 0.40 0.44 0.49 0.51 0.55 0.58 0.58 0.55
0.35 0.28 0.25 0.23 0.18 0.16 0.17 0.16 0.15 0.16 0.17 0.18 0.17 0.16 0.16 0.16 0.17 0.19 0.21 0.21 0.22 0.21 0.20 0.22 0.25 0.25 0.22 0.23 0.25 0.27 0.31 0.33 0.34 0.36 0.38 0.39 0.39 0.41 0.44 0.45 0.49 0.51 0.55 0.57
0.16 0.16 0.17 0.15 0.15 0.13 0.14 0.13 0.12 0.13 0.14 0.17 0.19 0.18 0.17 0.16 0.17 0.20 0.22 0.23 0.23 0.21 0.21 0.19 0.21 0.24 0.24 0.24 0.27 0.29 0.31 0.34 0.36 0.35 0.37 0.39 0.39 0.39 0.41 0.42 0.42 0.41 0.45 0.53
0.09 0.12 0.17 0.14 0.11 0.10 0.11 0.12 0.12 0.12 0.13 0.14 0.15 0.16 0.18 0.20 0.21 0.22 0.22 0.22 0.22 0.22 0.21 0.20 0.21 0.22 0.24 0.27 0.28 0.29 0.31 0.32 0.33 0.35 0.38 0.41 0.41 0.40 0.41 0.42 0.42 0.41 0.42 0.49
0.10 0.09 0.09 0.09 0.10 0.10 0.10 0.12 0.14 0.14 0.14 0.15 0.17 0.19 0.22 0.23 0.23 0.21 0.20 0.21 0.23 0.23 0.20 0.19 0.20 0.21 0.22 0.25 0.27 0.28 0.29 0.34 0.36 0.35 0.36 0.38 0.41 0.42 0.42 0.43 0.44 0.44 0.44 0.47
0.17 0.17 0.16 0.16 0.14 0.12 0.12 0.14 0.16 0.17 0.17 0.19 0.22 0.23 0.22 0.22 0.20 0.19 0.20 0.21 0.21 0.22 0.22 0.22 0.23 0.21 0.21 0.23 0.26 0.27 0.28 0.31 0.35 0.35 0.35 0.37 0.38 0.39 0.40 0.43 0.45 0.44 0.43 0.49
0.19 0.20 0.20 0.21 0.20 0.19 0.17 0.16 0.16 0.17 0.18 0.19 0.20 0.21 0.22 0.24 0.24 0.23 0.22 0.21 0.19 0.18 0.18 0.19 0.20 0.18 0.18 0.22 0.26 0.27 0.28 0.28 0.28 0.30 0.33 0.38 0.41 0.39 0.40 0.41 0.41 0.42 0.44 0.49
0.17 0.17 0.16 0.17 0.18 0.19 0.18 0.18 0.17 0.18 0.17 0.17 0.19 0.21 0.22 0.23 0.23 0.22 0.20 0.21 0.21 0.22 0.21 0.19 0.20 0.18 0.18 0.20 0.25 0.25 0.28 0.29 0.29 0.29 0.33 0.39 0.42 0.40 0.40 0.41 0.42 0.42 0.45 0.48
0.13 0.14 0.16 0.17 0.18 0.18 0.19 0.18 0.18 0.18 0.18 0.18 0.19 0.19 0.20 0.21 0.21 0.20 0.20 0.20 0.22 0.25 0.23 0.22 0.21 0.18 0.18 0.20 0.25 0.25 0.26 0.28 0.29 0.30 0.33 0.37 0.39 0.39 0.40 0.42 0.42 0.42 0.43 0.45
0.14 0.15 0.17 0.19 0.20 0.19 0.20 0.20 0.19 0.19 0.18 0.17 0.19 0.20 0.20 0.22 0.22 0.23 0.23 0.22 0.21 0.20 0.20 0.21 0.19 0.18 0.20 0.25 0.29 0.28 0.29 0.30 0.31 0.32 0.33 0.36 0.38 0.39 0.39 0.40 0.42 0.43 0.43 0.44
0.17 0.18 0.19 0.21 0.23 0.23 0.21 0.20 0.20 0.19 0.17 0.17 0.17 0.17 0.17 0.18 0.19 0.20 0.21 0.23 0.24 0.23 0.20 0.18 0.17 0.21 0.26 0.31 0.29 0.29 0.31 0.32 0.33 0.33 0.34 0.36 0.39 0.40 0.40 0.42 0.44 0.45 0.45 0.46
0.18 0.19 0.20 0.22 0.23 0.24 0.23 0.21 0.21 0.20 0.19 0.19 0.20 0.21 0.21 0.22 0.22 0.24 0.24 0.20 0.20 0.21 0.19 0.17 0.20 0.25 0.29 0.28 0.27 0.28 0.30 0.33 0.34 0.35 0.35 0.37 0.39 0.42 0.44 0.43 0.43 0.43 0.45 0.46
0.20 0.20 0.20 0.20 0.19 0.19 0.19 0.18 0.19 0.19 0.19 0.19 0.20 0.22 0.24 0.23 0.21 0.19 0.21 0.22 0.22 0.22 0.20 0.19 0.23 0.25 0.27 0.25 0.26 0.29 0.31 0.33 0.35 0.36 0.37 0.39 0.39 0.40 0.42 0.43 0.43 0.40 0.40 0.41
0.19 0.19 0.18 0.18 0.19 0.19 0.19 0.17 0.16 0.15 0.16 0.16 0.16 0.17 0.19 0.21 0.24 0.22 0.21 0.21 0.21 0.22 0.21 0.21 0.25 0.26 0.26 0.26 0.28 0.31 0.34 0.35 0.39 0.41 0.41 0.41 0.39 0.39 0.39 0.40 0.41 0.41 0.40 0.39
0.17 0.17 0.17 0.17 0.18 0.18 0.19 0.18 0.18 0.16 0.17 0.17 0.15 0.14 0.15 0.17 0.18 0.20 0.20 0.20 0.20 0.21 0.22 0.22 0.25 0.27 0.27 0.28 0.30 0.33 0.35 0.37 0.38 0.38 0.37 0.38 0.39 0.40 0.40 0.39 0.39 0.39 0.38 0.37
0.14 0.14 0.15 0.14 0.13 0.14 0.16 0.18 0.20 0.19 0.19 0.21 0.21 0.17 0.17 0.18 0.18 0.18 0.19 0.19 0.19 0.20 0.21 0.21 0.23 0.24 0.26 0.28 0.30 0.31 0.33 0.34 0.35 0.36 0.36 0.38 0.39 0.40 0.39 0.39 0.40 0.39 0.38 0.37